Regional Weather Roundup
Issued by NWS Lake Charles, LA

Home | Current Version | Previous Version | Text Only | Print | Product List | Glossary On
Versions: 1 2 3 4 5 6 7 8 9 10 11 12 13 14 15 16 17 18 19 20 21 22 23 24 25 26 27 28 29 30 31 32 33 34 35 36 37 38 39 40 41 42 43 44 45 46 47 48 49 50
000
ASUS44 KLCH 261810
RWRLCH
REGIONAL WEATHER ROUNDUP
NATIONAL WEATHER SERVICE LAKE CHARLES LA
100 PM CDT SUN MAR 26 2017

Note: "fair" indicates few or no clouds below 12,000 feet with no
significant weather and/or obstructions to visibility.


ACROSS SOUTHEAST TEXAS

CITY           SKY/WX    TMP DP  RH WIND       PRES   REMARKS
BEAUMONT       PTSUNNY   81  66  60 S15G24    29.95F
BEAUMONT CITY  MOCLDY   N/A N/A N/A SE16      29.96F
ORANGE         PTCLDY    78  67  69 S13G18    29.99F
JASPER           N/A     79  66  63 S13G23    29.98F
$$

ACROSS CENTRAL LOUISIANA

CITY           SKY/WX    TMP DP  RH WIND       PRES   REMARKS
LEESVILLE      PTSUNNY   78  77  99 SE13G21   29.97F
FULLERTON      MOCLDY    80  64  58 VRB6      29.96F
ALEXANDRIA INT MOSUNNY   78  66  66 SE9       29.97F
ESLER FIELD    PTSUNNY   79  64  60 S9G18     29.99F
DERIDDER       MOCLDY    78  63  61 SE13      29.99F
OAKDALE        CLOUDY    78  65  65 SW8       29.99F
OPELOUSAS      MOCLDY    79  64  60 MISG      30.01F
$$

ACROSS SOUTHWEST AND SOUTH CENTRAL LOUISIANA

CITY           SKY/WX    TMP DP  RH WIND       PRES   REMARKS
SULPHUR        CLOUDY    79  67  67 SE15      30.00S
LAKE CHARLES   MOSUNNY   79  65  62 S13G21    29.99F
CHENNAULT INT  PTSUNNY   79  66  65 S13G18    29.99F
CAMERON PHI    CLEAR     75  72  88 SE14      29.98F
DEQUINCY       MOCLDY    78  64  63 SE14G20   29.98F
JENNINGS       FAIR      78  67  68 S7        30.00F
LAFAYETTE      PTSUNNY   82  66  58 S9G20     30.01F
NEW IBERIA     PTSUNNY   79  66  64 S13       30.03S
ABBEVILLE      NOT AVBL
PATTERSON      PTSUNNY   79  68  69 SW12      30.04S
SALT POINT       N/A     76  69  79 VRB5      30.02F
$$

SELECTED SITES ACROSS THE REGION

CITY           SKY/WX    TMP DP  RH WIND       PRES   REMARKS
HOUSTON BUSH   MOSUNNY   81  62  52 S16G25    29.91F
HOUSTON HOBBY  MOSUNNY   82  66  58 S12G23    29.91F
GALVESTON      PTSUNNY   79  72  79 SE13      29.95F
COLLEGE STAT   MOSUNNY   81  65  58 SE16G25   29.89F
CONROE         MOSUNNY   80  64  58 S17       29.91F
HUNTSVILLE     MOSUNNY   80  62  54 VRB7      29.91F
LUFKIN         MOSUNNY   77  63  61 S15G22    29.93F
SHREVEPORT     MOSUNNY   81  56  42 S10       29.94F
MONROE         SUNNY     76  55  48 SW8       30.00F
NATCHEZ MS     MOSUNNY   79  63  57 S10G16    30.01F
BATON ROUGE    MOSUNNY   81  65  58 S9        30.02F
N.O. INTL ARPT MOSUNNY   79  66  64 S9        30.04F
SLIDELL        CLOUDY    78  66  66 S7        30.04F
$$

MARINE REPORTS

STATION/POSITION TIME  SKY/WX   TEMP    WIND        PRES    VSBY
                                AIR SEA DIR/SP/G
                 (UTC)          (F)     (DEG/KT/KT) (MB)    (MI)
BUOY 30 S HIGH I 1750            72 72  140/ 10/ 12 1014.3F
WVE H/P(F/S)=  3/ 8

SEA RIM ST PARK  1800            74     130/ 13/ 15 1015.2F
PORT ARTHUR      1742               72  160/  8/ 14 1015.2F
SABINE PASS N    1742            73 74  130/ 14/ 17 1016.4F
TEXAS POINT      NOT AVBL
CALCASIEU PASS   1748            73 73  160/ 11/ 16   N/A
LK CHARLES BEACH 1748            78 70              1015.9F
MARSH ISLAND     1700            73                   N/A
FRESH WATER LOCK 1748            73 73  150/ 12/ 14 1016.6F
AMERADA PASS     1748            75 61  160/  6/  9 1017.0F
$$



USA.gov is the U.S. government's official web portal to all federal, state and local government web resources and services.